AirNav   ATP
 
 671 users online  

CYAM Sault Ste Marie Airport
Sault Ste Marie, Ontario, Canada

GOING TO SAULT STE MARIE?


FAA INFORMATION EFFECTIVE 11 OCTOBER 2018

The information below comes from the U.S. Federal Avaition Administration (FAA). The FAA is not the official source of data for facilities located outside the United States, and THESE RECORDS ARE LIKELY NOT COMPLETE OR CORRECT.

Location

FAA Identifier: CYAM
Lat/Long: 46-29-06.0000N / 084-30-34.0000W
46-29.100000N / 084-30.566667W
46.4850000 / -84.5094444
(estimated)
Elevation: 630 ft. / 192 m (estimated)
Variation: 07W ()
From city: 8 miles WSW of SAULT STE MARIE,
Time zone: UTC -4 (UTC -5 during Standard Time)
Zip code: 49710

Airport Operations

Airport use: Open to the public
Activation date: 03/2005
Control tower: no
ARTCC: TORONTO CENTER
FSS: LONDON FIC FLIGHT SERVICE STATION
Attendance: 
Segmented circle: no

Airport Communications

WX ASOS at ANJ (6 nm E): 118.375 (906-632-8501)
WX AWOS-3PT at CIU (14 nm S): 127.575 (906-495-7134)

Nearby radio navigation aids

VOR radial/distance  VOR name  Freq  Var
SSMr303/9.2SAULT STE MARIE VOR/DME112.2004W

 
NDB name  Hdg/Dist  Freq  Var  ID
KOLOE015/9.340007WCI -.-. ..

Airport Services

Runway Information

Runway 4/22

Dimensions: 6000 x 200 ft. / 1829 x 61 m
Surface: asphalt
RUNWAY 4  RUNWAY 22
Traffic pattern: leftleft

Runway 12/30

Dimensions: 6000 x 200 ft. / 1829 x 61 m
Surface: asphalt
RUNWAY 12  RUNWAY 30
Traffic pattern: leftleft

Airport Ownership and Management from official FAA records

Ownership: Publicly-owned

Instrument Procedures

There are no published instrument procedures at CYAM.

Some nearby airports with instrument procedures:

KANJ - Sault Ste Marie Municipal Airport/Sanderson Field (6 nm E)
KCIU - Chippewa County International Airport (14 nm S)
83D - Mackinac County Airport (37 nm S)
KMCD - Mackinac Island Airport (38 nm S)
KERY - Luce County Airport (41 nm W)
 
Loc | Ops | Rwys | IFR | FBO | Links
Com | Nav | Svcs | Stats | Notes


 
Aerial photo
No photo
 
Airport distance calculator
Flying to Sault Ste Marie Airport? Find the distance to fly.

From to CYAM

Sunrise and sunset
Times for 20-Oct-2018
 Local
(UTC-4)
 Zulu
(UTC)
Morning civil twilight07:3311:33
Sunrise08:0312:03
Sunset18:4222:42
Evening civil twilight19:1323:13

Current date and time
Zulu (UTC)  20-Oct-2018 04:17:23
Local (UTC-4)  20-Oct-2018 00:17:23
 
METAR
CYAM 200300Z 31021G30KT 20SM FEW014 FEW038 SCT090 08/04 A2949 RMK CU1SC1AC2 CU TR SLP992
KANJ 
6nm E 
200355Z AUTO 29016G26KT 10SM CLR 08/04 A2949 RMK AO2 PK WND 30038/0337 SLP986 T00780039
KCIU 
14nm S 
200356Z AUTO 29012G19KT 10SM FEW024 06/04 A2952 RMK AO2 SLP028 T00610039
TAF
CYAM 200138Z 2002/2014 29020G30KT P6SM BKN030 OVC050 TEMPO 2002/2012 5SM -SHRA BR BKN015 OVC030 FM201200 30015G25KT P6SM BKN030 TEMPO 2012/2014 5SM -SHSN BECMG 2012/2014 33015G25KT RMK NXT FCST BY 200800Z
NOTAMs
Click for the latest NOTAMs
NOTAMs are issued by the DoD/FAA and will open in a separate window not controlled by AirNav.

 

 
 

Would you like to see your business listed on this page?

 If your business provides an interesting product or service to pilots, flight crews, aircraft, or users of the Sault Ste Marie Airport, you should consider listing it here.  To start the listing process, click on the button below
 
Add a business
 

Other Pages about Sault Ste Marie Airport

Update a link
 
Copyright © AirNav, LLC. All rights reserved. Privacy Policy  Contact